FW1140 Weather Reports


time (UTC)temp
C
wind
direction
speed
KPH
gust
KPH
rain 1hr
cm
rain 24hr
cm
rain mn
cm
humidity
%
barometer
mb
20260506201553 7 288 14.5 29.0 0.00 0.00 0.00 44 1015.2
20260506200056 8 273 12.9 27.4 0.00 0.00 0.00 44 1015.3
20260506194553 8 311 20.9 27.4 0.00 0.00 0.00 44 1015.4
20260506193051 7 313 16.1 25.7 0.00 0.00 0.00 46 1015.6
20260506191548 7 258 14.5 30.6 0.00 0.00 0.00 46 1015.7
20260506190050 7 317 19.3 27.4 0.00 0.00 0.00 46 1015.8
20260506184549 6 316 16.1 29.0 0.00 0.00 0.00 47 1015.8
20260506183046 6 304 17.7 32.2 0.00 0.00 0.00 47 1015.9
20260506181550 6 312 24.1 33.8 0.00 0.00 0.00 46 1016.1
20260506180042 6 323 14.5 32.2 0.00 0.00 0.00 46 1016.2
20260506174540 6 276 11.3 27.4 0.00 0.00 0.00 47 1016.3
20260506173044 6 301 16.1 29.0 0.00 0.00 0.00 47 1016.4
20260506171538 5 325 16.1 27.4 0.00 0.00 0.00 49 1016.6
20260506170043 5 314 22.5 32.2 0.00 0.00 0.00 49 1016.7
20260506164549 5 324 16.1 32.2 0.00 0.00 0.00 52 1016.8
20260506163037 5 305 14.5 29.0 0.00 0.00 0.00 49 1016.8
20260506161532 5 319 19.3 32.2 0.00 0.00 0.00 51 1016.6
20260506160033 5 321 14.5 29.0 0.00 0.00 0.00 55 1016.7
20260506154529 5 335 19.3 27.4 0.00 0.00 0.00 55 1016.7
20260506153026 4 350 16.1 22.5 0.00 0.00 0.00 56 1016.7
20260506151525 3 356 14.5 24.1 0.00 0.00 0.00 56 1016.7
20260506150027 4 359 14.5 22.5 0.00 0.00 0.00 55 1016.8
20260506144526 3 347 14.5 24.1 0.00 0.00 0.00 58 1016.6
20260506143020 3 338 16.1 22.5 0.00 0.00 0.00 59 1016.8
20260506141524 3 317 16.1 22.5 0.00 0.00 0.00 61 1016.7
20260506140010 3 315 12.9 24.1 0.00 0.00 0.00 63 1016.8
20260506134506 3 359 12.9 24.1 0.00 0.00 0.00 64 1016.5
20260506133003 3 313 14.5 27.4 0.00 0.00 0.00 62 1016.5
20260506131616 3 314 19.3 29.0 0.00 0.00 0.00 60 1016.5
20260506130058 2 319 11.3 16.1 0.00 0.00 0.00 62 1016.4
20260506124554 2 285 9.7 14.5 0.00 0.00 0.00 62 1016.3
20260506123051 2 293 8.0 14.5 0.00 0.00 0.00 63 1015.9
20260506121554 2 300 6.4 11.3 0.00 0.00 0.00 65 1015.7
20260506120057 2 294 6.4 12.9 0.00 0.00 0.00 65 1015.5
20260506114541 2 333 6.4 16.1 0.00 0.00 0.00 65 1015.3
20260506113038 2 282 9.7 16.1 0.00 0.00 0.00 63 1015.1
20260506111544 2 271 9.7 19.3 0.00 0.00 0.00 63 1014.9
20260506110035 2 267 8.0 12.9 0.00 0.00 0.00 63 1014.8
20260506104542 2 273 9.7 14.5 0.00 0.00 0.00 63 1014.7
20260506103042 2 266 8.0 12.9 0.00 0.00 0.00 66 1014.6
20260506101534 1 298 6.4 9.7 0.00 0.00 0.00 66 1014.6
20260506100033 1 278 6.4 11.3 0.00 0.00 0.00 67 1014.8
20260506094532 1 268 4.8 11.3 0.00 0.00 0.00 68 1014.8
20260506093031 1 264 4.8 9.7 0.00 0.00 0.00 68 1014.8
20260506091528 1 284 4.8 8.0 0.00 0.00 0.00 66 1014.6
20260506090024 2 273 4.8 9.7 0.00 0.00 0.00 66 1014.6
20260506084547 2 311 9.7 14.5 0.00 0.00 0.00 65 1014.5
20260506083023 2 302 8.0 14.5 0.00 0.00 0.00 65 1014.5
20260506081528 2 297 9.7 16.1 0.00 0.00 0.00 65 1014.4
20260506073019 2 295 11.3 17.7 0.00 0.00 0.00 64 1014.5
20260506071517 2 300 11.3 14.5 0.00 0.00 0.00 63 1014.5
20260506061511 2 306 9.7 12.9 0.00 0.00 0.00 65 1014.4
20260506050104 3 330 4.8 14.5 0.00 0.00 0.00 62 1014.1
20260506044559 3 340 9.7 14.5 0.00 0.00 0.00 62 1014.1
20260506044503 3 327 9.7 14.5 0.00 0.00 0.00 62 1014.1
20260506043058 3 314 6.4 11.3 0.00 0.00 0.00 62 1014.0
20260506041608 3 314 4.8 9.7 0.00 0.00 0.00 60 1014.0
20260506040059 3 309 6.4 11.3 0.00 0.00 0.00 58 1014.1
20260506034557 3 298 8.0 11.3 0.00 0.00 0.00 59 1013.9
20260506033053 3 309 8.0 12.9 0.00 0.00 0.00 58 1013.7
20260506031555 3 311 6.4 9.7 0.00 0.00 0.00 58 1013.5
20260506030052 3 321 6.4 9.7 0.00 0.00 0.00 57 1013.4
20260506024549 4 328 8.0 12.9 0.00 0.00 0.00 54 1013.2
20260506023102 5 344 11.3 22.5 0.00 0.00 0.00 53 1013.0
20260506021607 5 359 8.0 14.5 0.00 0.00 0.00 54 1012.7
20260506020044 5 342 8.0 12.9 0.00 0.00 0.00 52 1012.5
20260506014542 5 337 8.0 16.1 0.00 0.00 0.00 53 1012.3
20260506013044 5 329 9.7 17.7 0.00 0.00 0.00 51 1012.3
20260506011548 6 340 11.3 16.1 0.00 0.00 0.00 51 1012.2
20260506010040 6 353 8.0 19.3 0.00 0.00 0.00 50 1012.2
20260506004538 6 359 12.9 24.1 0.00 0.00 0.00 50 1012.1
20260506003039 6 325 14.5 20.9 0.00 0.00 0.00 49 1012.0
20260506001537 6 345 11.3 22.5 0.00 0.00 0.00 48 1011.8
20260506000035 7 324 14.5 29.0 0.00 0.00 0.00 47 1011.8
20260505234535 7 321 17.7 27.4 0.00 0.00 0.00 46 1011.7
20260505233035 7 339 17.7 30.6 0.00 0.00 0.00 46 1011.5
20260505231547 7 292 20.9 33.8 0.00 0.00 0.00 44 1011.4
20260505230034 7 301 16.1 27.4 0.00 0.00 0.00 45 1011.4
20260505224532 7 295 22.5 33.8 0.00 0.00 0.00 44 1011.3
20260505223031 7 301 22.5 30.6 0.00 0.00 0.00 45 1011.5
20260505221530 7 309 24.1 30.6 0.00 0.00 0.00 44 1011.4
20260505220032 7 328 24.1 35.4 0.00 0.00 0.00 43 1011.3
20260505214540 7 309 17.7 29.0 0.00 0.00 0.00 43 1011.3
20260505213036 7 319 25.7 33.8 0.00 0.00 0.00 41 1011.3
20260505211528 7 301 19.3 35.4 0.00 0.00 0.00 42 1011.3
20260505210028 8 321 22.5 30.6 0.00 0.00 0.00 40 1011.2
20260505204527 8 305 19.3 32.2 0.00 0.00 0.00 42 1011.2
20260505203040 7 302 20.9 35.4 0.00 0.00 0.00 42 1011.2